7 * 24
多渠道服务支持
STARLINK-37431(NORAD编号68812)是美国SpaceX公司星链(Starlink)星座中的一颗低轨通信卫星,属于星链卫星互联网项目的组网卫星,旨在为全球提供高速低延迟宽带互联网服务。星链项目规划规模庞大,已发射数千颗卫星,该卫星运行在近地轨道,依托星链的星座布局,可实现全球范围的信号覆盖,满足偏远地区网络接入、移动场景联网等多样化通信需求,助力星链系统构建覆盖全球的空间互联网基础设施。
美国
(US)
| 数据来源 | 国际轨道数据 |
| 星历时间: | 2026-05-24T10:20:31+0800 1天前 查看轨道信息 |
| 半长轴: | 6722.041km |
| 偏心率: | 0.0000773 |
| 轨道倾角: | 97.284° |
| 近地点辐角 | 68.843° |
| 升交点赤经 | 350.695° |
| 平近点角 | 291.291° |
| 近地点: | 343.384km |
| 远地点: | 344.424km |
| 周期: | 91.414分钟 |
| 每日圈数: | 15.752558 |